Location: Mercogliano
(40.9167°N, 14.7333°E)
Time: 04:31:48
(UTC+00:00)

ATLAS 3B R/B - Pass Details

Date: 18 September 2020
Orbit: 1016 x 1179 km, 63.8° (Epoch: 04 October)

Event Time Altitude Azimuth Distance (km) Brightness Sun altitude
Rises 21:24:20 0° 324° (NW) 3,850 6.4 -42.9°
Reaches altitude 10° 21:26:56 10° 323° (NW) 2,913 5.6 -43.2°
Enters shadow 21:30:03 29° 319° (NW) 1,865 4.3 -43.5°
